Tracking 29892 objects as of 21-Nov-2024
HD Live streaming from Space Station
objects crossing your sky now

BREEZE-KM R/B

Track BREEZE-KM R/B now!
10-day predictions


NORAD ID: 38737
Int'l Code: 2012-041E
Perigee: 1,167.2 km
Apogee: 1,515.2 km
Inclination: 82.5 °
Period: 112.3 minutes
Semi major axis: 7712 km
RCS: 7.3622 m2 (large)
Launch date: July 28, 2012
Source: Commonwealth of Independent States (former USSR) (CIS)
Launch site: PLESETSK MISSILE AND SPACE COMPLEX (PKMTR)

Note: This is a ROCKET BODY
Your satellite tracking list
Your tracking list is empty




NASA's NSSDC Master Catalog

Two Line Element Set (TLE):
1 38737U 12041E   24325.48972306  .00000028  00000-0  62608-4 0  9997
2 38737  82.4802 219.6496 0225615 161.7112 199.2273 12.81835905576295
Source of the keplerian elements: AFSPC